Regional Weather Roundup
Issued by NWS Cleveland, OH

Home | Current Version | Previous Version | Text Only | Print | Product List | Glossary Off
Versions: 1 2 3 4 5 6 7 8 9 10 11 12 13 14 15 16 17 18 19 20 21 22 23 24 25 26 27 28 29 30 31 32 33 34 35 36 37 38 39 40 41 42 43 44 45 46 47 48 49 50

000
ASUS41 KCLE 220910
RWRCLE
OHIO REGIONAL WEATHER ROUNDUP
NATIONAL WEATHER SERVICE CLEVELAND, OH
500 AM EDT WED OCT 22 2014

NOTE: "FAIR" INDICATES FEW OR NO CLOUDS BELOW 12,000 FEET WITH NO
SIGNIFICANT WEATHER AND/OR OBSTRUCTIONS TO VISIBILITY.

OHZ001>008-015>018-024>027-034-035-043-044-221000-
   NORTHWEST OHIO

CITY           SKY/WX    TMP DP  RH WIND       PRES   REMARKS
DEFIANCE       CLOUDY    44  36  73 N7        30.25R
FINDLAY        CLOUDY    44  39  82 NW8       30.22R
TOLEDO EXPRESS CLOUDY    43  37  79 N10       30.23R
TOLEDO EXEC    CLOUDY    46  38  73 N8        30.23R
LIMA           CLOUDY    44  38  79 N10       30.22R
$$

OHZ009>014-019>023-028>033-038-089-221000-
   NORTHEAST OHIO

CITY           SKY/WX    TMP DP  RH WIND       PRES   REMARKS
CLE-HOPKINS    CLOUDY    48  43  82 N15       30.18R
CLE-LAKEFRONT  CLOUDY    50  43  77 NE16      30.15R
CUY CO. ARPT   NOT AVBL
LORAIN-ELYRIA  CLOUDY    48  44  86 NE8       30.17R
ASHTABULA      CLOUDY    46  43  89 NE7       30.14R
AKRON-CANTON   CLOUDY    47  43  86 N12       30.12R
WOOSTER        CLOUDY    48  44  86 NE9       30.14R FOG
MANSFIELD      CLOUDY    44  44 100 NW9       30.15R FOG
YOUNGSTOWN     CLOUDY    46  44  93 N13       30.10R
$$

OHZ042-051>053-060>062-070>072-077>081-221000-
  SOUTHWEST OHIO

CITY           SKY/WX    TMP DP  RH WIND       PRES   REMARKS
CINC-COVINGTON CLOUDY    46  37  71 N7        30.20R
CINC-LUNKEN    CLOUDY    46  38  73 VRB3      30.22R
HAMILTON       CLOUDY    46  39  76 N6        30.22R
DAYTON         MOCLDY    43  38  82 N9        30.22S
WRIGHT-PAT AFB MOCLDY    44  39  83 N8        30.21R
DAYTON GENERAL CLOUDY    44  39  82 N12       30.20R
WILMINGTON     CLOUDY    44  38  79 N10       30.19R
$$

OHZ036-037-039>041-045>050-054>059-063>069-073>076-082>088-221000-
  CENTRAL AND SOUTHEAST OHIO

CITY           SKY/WX    TMP DP  RH WIND       PRES   REMARKS
COLUMBUS       CLOUDY    45  41  86 NW10      30.17R
OSU AIRPORT    CLOUDY    44  40  85 NW12      30.18R
BOLTON FIELD   CLOUDY    44  41  91 NW9       30.19R
RICKENBACK AFB CLOUDY    44  41  89 NW10      30.17R
NEWARK         CLOUDY    47  42  83 NW6       30.15R
MARION         CLOUDY    43  41  93 NW12      30.19R FOG
LANCASTER      CLOUDY    46  42  86 NW6       30.16R
ZANESVILLE     CLOUDY    46  43  89 NW7       30.12R
NEW PHILLY     CLOUDY    48  45  89 NW6       30.12R
$$



USA.gov is the U.S. government's official web portal to all federal, state and local government web resources and services.